This is the latest recevied weather packets stored in our database for station/object KD4WXI. If no packets are shown the sender has not sent any weather packets the latest 10 day(s).
| Time | Temp. | Humidity | Pressure | Rain* | Wind** | Luminosity | Snow |
|---|---|---|---|---|---|---|---|
| 1777964094 | 15° C | 69% | 1015 hPa | 0 mm | - | 0 W/m² | - |
| 1777963791 | 15° C | 68% | 1015.1 hPa | 0 mm | - | 0 W/m² | - |
| 1777963488 | 15.56° C | 66% | 1015 hPa | 0 mm | - | 0 W/m² | - |
| 1777963186 | 15.56° C | 66% | 1015 hPa | 0 mm | - | 0 W/m² | - |
| 1777962882 | 15.56° C | 65% | 1015.1 hPa | 0 mm | - | 0 W/m² | - |
| 1777962579 | 14.44° C | 66% | 1015 hPa | 0 mm | - | 0 W/m² | - |
| 1777962276 | 13.89° C | 69% | 1014.9 hPa | 0 mm | - | 0 W/m² | - |
| 1777961973 | 13.33° C | 70% | 1015.1 hPa | 0 mm | - | 0 W/m² | - |
| 1777961671 | 13.33° C | 69% | 1015.2 hPa | 0 mm | - | 0 W/m² | - |
| 1777961368 | 13.33° C | 71% | 1015.2 hPa | 0 mm | - | 0 W/m² | - |
| 1777961065 | 12.78° C | 75% | 1015.1 hPa | 0 mm | - | 0 W/m² | - |
| 1777960761 | 12.78° C | 78% | 1015.2 hPa | 0 mm | - | 0 W/m² | - |
| 1777960458 | 12.22° C | 78% | 1015.1 hPa | 0 mm | - | 0 W/m² | - |
| 1777960154 | 12.22° C | 77% | 1015 hPa | 0 mm | - | 0 W/m² | - |
| 1777959852 | 12.22° C | 80% | 1015.2 hPa | 0 mm | - | 0 W/m² | - |
| 1777959550 | 11.67° C | 80% | 1015.4 hPa | 0 mm | - | 0 W/m² | - |
| 1777959247 | 11.11° C | 79% | 1015.1 hPa | 0 mm | - | 0 W/m² | - |
| 1777958943 | 10.56° C | 79% | 1015.1 hPa | 0 mm | - | 0 W/m² | - |
| 1777958640 | 10.56° C | 80% | 1015.2 hPa | 0 mm | - | 0 W/m² | - |
| 1777958338 | 10.56° C | 82% | 1015.1 hPa | 0 mm | - | 0 W/m² | - |
| 1777958034 | 10.56° C | 83% | 1015.2 hPa | 0 mm | - | 0 W/m² | - |
| 1777957733 | 10° C | 85% | 1015.1 hPa | 0 mm | - | 0 W/m² | - |
| 1777957431 | 10° C | 85% | 1015.1 hPa | 0 mm | - | 0 W/m² | - |
| 1777957127 | 10° C | 85% | 1015.2 hPa | 0 mm | - | 0 W/m² | - |
| 1777956824 | 10° C | 86% | 1015.2 hPa | 0 mm | - | 0 W/m² | - |
* Rain latest hour (hover to see other rain measurements)
** Current wind speed in m/s (hover to see current wind gust speed)